SCP
0 0 0 0 0 0 0 0 0 0 0 0 0 0 0 0 0 0 0 0 0 0 0 0 0 0 0 0 0 0 0 0 0 0 0 0 0 0 0 0 0 0 0 0
0 0 0 0 0 0 0 0 0 0 -0 0 0 0 0 0 0 0 0 0 0 0 0 0 0 0 0 0 0 0 0 0 0 0 0 0 0 0 0 0 0 0 0 0
0 -0 0 0 0 0 0 0 0 0 0 0 -0 0 0 0 0 0 0 0 0 0 0 0 0 0 0 0 0 0 0 0 0 0 0 0 0 0 0 0 0 0 0 0
0 0 0 0 0 -0 0 0 0 0 0 0 0 0 0 0 0 0 0 0 0 0 0 0 0 0 0 0 0 0 0 0 0 0 0 0 0 0 0 0 0 0 0 0
0 -0 0 0 0 0 0 0 0 0 0 0 0 0 0 0 0 0 0 0 0 0 0 0 0 0 0 0 0 0 0 0 0 0 0 0 0 0 0 0 0 0 0 0
0 0 0 0 0 0 0 0 0 0 0 0 0 0 0 0 0 0 0 0 0 0 0 0 0 0 0 0 0 0 0 0 0 0 0 0 0 0 0 0 0 0 0 0
0 0 0 0 0 0 0 0 0 0 0 0 0 0 0 0 0 0 0 0 0 0 0 0 0 0 0 0 0 0 0 0 0 0 0 0 0 0 0 0 0 0 0 0
0 0 0 0 0 0 0 0 0 0 0 0 0 0 0 0 0 0 0 0 0 0 0 0 0 0 0 0 0 0 0 0 0 0 0 0 0 0 0 0 0 0 0 0
0 0 0 0 0 0 0 0 0 0 0 0 0 0 0 0 0 0 0 0 0 0 0 0 0 0 0 0 0 0 0 0 0 0 0 0 0 0 0 0 0 0 0 0
0 0 0 0 -0 0 -0 0 0 0 0 -0 0 -0 0 0 0 0 0 0 0 0 0 0 0 0 0 0 0 0 0 0 0 0 0 0 0 0 0 0 0 0 0 0
0 0 0 0 -0 0 0 0 0 0 0 0 0 0 0 0 0 0 0 0 0 0 0 0 0 0 0 0 0 0 0 0 0 0 0 0 0 0 0 0 0 0 0 0
-0 0 0 0 -0 0 0 0 0 0 0 0 0 0 0 0 0 0 0 0 0 0 0 0 0 0 0 0 0 0 0 0 0 0 0 0 0 0 0 0 0 -0 -0 0
0 -0 -0 -0 0 0 0 0 0 0 0 0 0 0 0 0 0 0 0 0 0 0 0 0 0 0 0 0 0 0 0 0 0 0 0 0 0 0 0 0 0 0 -0 -0
0 -0 0 0 0 0 0 0 0 -0 -0 0 0 0 0 0 0 0 0 0 0 0 0 0 0 0 0 0 0 0 0 0 0 0 0 0 0 0 0 0 0 0 0 0
0 0 -0 -0 0 0 0 0 0 0 0 0 0 0 0 0 0 0 0 0 0 0 0 0 0 0 0 0 0 0 0 0 0 0 0 0 0 0 0 0 0 0 0 0
0 0 0 0 0 0 0 0 0 0 0 0 0 0 0 0 0 0 0 0 0 0 0 0 0 0 0 0 0 0 0 0 0 0 0 0 0 0 0 0 0 0 0 0
0 0 0 0 0 0 0 -0 -0 -0 -0 0 0 0 0 0 0 0 0 0 0 0 0 0 0 0 0 0 0 0 0 0 0 0 0 0 0 0 0 0 0 0 0 0
-0 -0 -0 -0 -0 -0 -0 -0 -0 -0 -0 -0 -0 0 0 0 0 0 0 0 0 0 0 0 0 0 0 0 0 0 0 0 0 0 0 0 0 0 0 0 0 0 0 0
-0 -0 -0 -0 -0 -0 -0 -0 -0 -0 -0 -0 0 0 0 0 0 0 0 0 0 0 0 0 0 0 0 0 0 0 0 0 0 0 0 0 0 0 0 0 0 0 0 0
-0 -0 -0 -0 -0 0 0 0 0 0 0 0 0 0 0 0 0 0 0 0 0 0 0 0 0 0 0 0 0 0 0 0 0 0 0 0 0 0 0 0 0 0 0 0
0 0 0 0 0 0 0 0 0 0 0 0 0 0 0 0 0 0 0 0 0 0 0 0 0 0 0 0 0 0 0 0 0 0 0 0 0 0 0 0 0 0 0 0
0 0 0 0 0 0 0 0 0 0 0 0 0 0 0 0 0 0 0 0 0 0 0 0 0 0 0 0 0 0 0 0 0 0 0 0 0 0 0 0 0 0 0 0
0 0 0 0 0 0 0 0 0 0 0 0 0 0 0 0 0 0 0 0 0 0 0 0 0 0 0 0 0 0 0 0 0 0 0 0 0 0 0 0 0 0 0 0
0 0 0 0 0 0 0 0 0 0 0 0 0 0 0 0 -0 0 0 0 0 0 0 0 0 0 0 0 0 0 0 0 0 0 0 0 0 0 0 0 0 0 0 0
0 0 0 0 0 0 0 0 0 0 0 -0 -0 -0 0 0 0 0 0 0 0 0 0 0 0 0 0 0 0 0 0 0 0 0 0 0 0 0 0 0 0 0 0 0
0 0 0 0 0 0 0 0 0 -0 -0 -0 -0 0 0 0 0 0 0 0 0 0 0 0 0 0 0 0 0 0 0 0 0 0 0 0 0 0 0 0 0 0 0 0
0 0 0 0 0 0 0 0 -0 -0 -0 0 0 0 0 0 0 0 0 0 0 0 0 0 0 0 0 0 0 0 0 0 0 0 0 0 0 0 0 0 0 0 0 0
Wind_Speed_500mb
8 7 5 7 8 12 22 29 13 4 9 8 10 9 8 17 39 44 55 53 51 51 50 50 50 48 46 41 36 31 28 27 27 29 29 29 31 32 33 33 31 31 29 28
6 2 3 6 8 12 13 17 17 25 39 3 7 6 11 25 35 32 45 52 49 45 46 46 43 40 35 30 26 24 24 25 25 25 27 28 29 29 31 34 33 33 32 31
8 6 3 9 8 5 5 9 8 7 6 6 7 8 12 30 42 44 48 51 49 49 47 44 40 32 27 23 21 22 24 26 27 27 26 25 26 27 29 30 33 33 35 36
4 5 3 7 6 6 9 9 17 11 17 16 4 3 6 23 39 43 40 45 49 50 47 41 35 28 23 22 19 19 21 22 24 24 25 26 27 28 29 30 31 31 34 35
3 5 3 5 10 7 9 10 8 13 16 9 19 13 1 4 19 33 37 46 49 45 41 37 30 25 20 20 19 18 17 17 15 15 17 19 22 23 24 26 28 29 31 32
3 3 3 5 11 6 2 4 6 5 12 14 19 3 4 18 2 19 31 40 47 44 38 32 27 21 16 15 15 14 12 11 10 10 11 13 15 16 18 19 22 24 26 27
5 3 5 5 19 13 3 6 12 16 16 15 7 4 16 9 1 17 26 34 35 35 31 26 21 18 18 14 13 10 8 8 9 7 8 10 11 12 14 15 18 20 22 22
6 7 5 26 11 9 6 16 18 23 18 12 6 5 8 3 6 14 26 31 31 31 25 21 18 17 14 13 12 9 8 5 4 5 7 7 8 8 11 11 12 16 18 15
8 6 8 14 16 19 18 19 16 23 18 9 11 8 2 8 11 18 20 25 24 22 22 20 18 15 12 11 8 6 3 1 1 3 5 5 6 6 9 9 9 11 10 10
3 11 8 20 19 37 28 27 24 19 17 12 14 3 2 7 11 14 15 15 16 18 19 18 17 16 14 11 8 6 5 3 1 1 2 3 4 5 7 8 9 9 9 11
6 7 4 14 38 37 35 27 24 18 16 11 9 5 4 7 9 11 13 15 16 18 19 19 17 15 13 11 10 9 9 8 7 7 5 5 4 5 6 8 8 10 10 12
4 5 7 14 34 29 41 38 33 26 21 15 10 7 7 8 10 11 14 15 16 17 16 15 14 14 13 12 10 9 8 7 6 6 6 5 6 10 11 11 13 14 14 14
9 32 33 25 18 28 35 33 29 23 20 17 13 7 5 7 10 11 12 14 15 14 14 13 12 11 9 8 7 6 3 0 2 4 6 9 11 11 11 18 19 19 20 21
17 22 6 25 20 31 26 23 21 21 20 18 16 12 6 4 4 8 10 12 11 10 11 10 9 8 7 6 5 7 8 10 12 14 16 19 22 24 28 28 29 25 26 31
17 19 15 16 20 22 19 19 20 25 25 21 17 15 13 8 2 5 8 8 7 6 6 5 5 9 9 11 13 16 18 19 23 24 27 31 33 35 38 41 43 44 42 36
14 11 17 28 30 29 27 27 28 28 24 23 21 17 13 11 6 2 3 4 3 6 3 12 12 19 21 22 24 26 28 31 34 37 39 42 44 47 49 51 53 54 55 53
21 30 34 40 40 38 36 31 29 28 26 21 17 14 9 5 3 5 8 11 14 15 16 22 24 28 32 32 34 36 38 40 44 49 50 52 55 57 57 59 62 63 63 58
23 24 24 27 30 31 32 32 30 28 27 25 22 20 16 12 11 14 16 20 23 24 27 31 34 36 38 41 45 48 51 53 55 58 58 61 61 62 63 64 67 70 72 71
30 31 31 30 29 28 28 27 28 28 26 24 22 20 21 22 23 24 27 30 32 38 38 39 40 43 45 48 52 54 57 58 59 61 62 64 68 70 72 74 75 74 73 71
26 24 21 19 19 20 23 24 25 26 27 27 28 29 29 31 35 38 41 44 43 46 49 50 51 51 54 57 59 63 65 66 67 68 68 69 69 68 66 64 62 60 57 56
15 15 15 17 20 24 27 30 33 35 39 43 46 48 49 46 45 47 50 54 49 51 50 52 55 56 57 58 59 58 56 55 55 55 54 53 52 52 53 53 53 54 55 55
11 12 13 14 19 23 29 34 40 44 47 50 51 53 57 57 55 54 48 51 48 43 43 44 43 44 45 45 46 45 45 46 48 49 50 51 52 53 54 56 59 60 61 61
12 12 13 18 25 31 37 43 46 53 56 55 56 56 55 52 47 48 44 35 36 37 40 39 40 42 44 46 46 47 49 50 52 54 56 58 60 62 63 64 64 63 62 60
14 15 20 26 34 41 47 52 56 56 59 56 48 44 45 47 39 29 37 40 41 44 46 48 49 50 53 57 57 58 58 59 60 60 60 60 61 62 62 61 60 57 55 52
20 21 25 33 40 47 54 59 60 56 52 43 35 33 35 38 47 49 50 52 51 53 55 53 53 53 56 58 58 59 59 58 56 56 56 55 54 53 52 50 49 47 45 43
24 25 31 39 46 53 57 59 59 49 47 45 34 35 38 42 47 53 55 56 58 58 58 55 51 49 49 49 50 51 52 52 51 51 51 51 50 50 48 45 44 42 40 38
28 31 38 45 50 54 55 52 49 45 41 47 55 53 56 56 57 59 60 59 56 54 53 52 52 52 52 53 54 54 53 53 52 52 51 51 50 48 45 42 39 36 34 31
Wind_Direction_500mb
264 218 160 216 216 225 228 240 250 271 227 274 274 239 217 153 147 153 167 178 186 186 184 186 184 184 180 182 189 198 210 221 231 236 239 239 242 242 241 242 244 247 252 254
274 284 179 284 256 251 253 256 251 251 274 153 323 256 128 163 166 167 177 181 186 191 184 180 182 185 183 185 194 204 217 225 230 237 241 242 244 244 244 244 244 247 251 255
277 317 285 343 312 281 295 18 309 262 311 172 216 218 191 191 194 195 198 185 183 188 184 182 186 187 188 195 210 224 232 235 235 238 243 245 246 246 247 247 249 251 252 253
318 360 1 247 256 226 84 42 15 343 353 339 345 204 296 216 204 203 200 193 188 186 184 185 189 193 202 208 208 221 229 236 235 236 241 247 248 248 248 249 251 251 253 253
247 210 135 357 358 5 21 3 347 320 330 315 336 308 104 176 212 218 204 201 194 187 187 188 194 197 204 212 216 220 220 223 234 239 244 248 252 253 254 255 256 256 256 256
104 123 29 252 298 210 138 12 305 311 319 325 342 355 25 352 347 197 194 195 191 188 188 191 191 201 208 207 208 205 208 215 228 234 242 251 256 261 260 258 256 256 257 258
227 118 21 291 300 299 6 303 329 325 331 347 17 351 315 336 107 157 169 174 178 177 180 182 194 200 198 201 207 212 222 236 245 253 255 255 258 259 260 261 263 263 262 261
349 57 358 349 360 49 286 314 330 350 1 353 20 353 327 18 141 156 159 162 170 173 175 177 182 189 193 196 200 207 219 233 245 252 259 263 261 268 267 265 266 263 260 247
29 53 51 36 52 16 355 326 340 346 357 2 352 353 62 104 134 151 160 163 170 175 175 176 181 183 190 188 184 193 200 203 230 241 241 245 259 274 280 283 273 268 267 261
143 16 54 55 27 23 21 5 357 351 351 353 342 333 59 159 167 167 162 165 164 167 170 171 171 172 173 164 162 150 119 96 100 276 326 324 325 318 305 312 313 310 297 279
75 22 304 44 12 1 0 1 11 3 354 5 329 290 266 217 197 184 177 174 172 170 171 168 164 159 153 143 133 119 106 105 99 86 68 44 22 0 336 331 328 308 303 299
305 56 309 293 337 342 352 353 359 2 3 360 329 305 271 243 224 204 188 180 175 169 165 161 159 154 150 143 134 125 123 113 96 75 61 39 19 352 351 341 335 330 322 316
298 307 304 306 303 330 342 348 356 1 358 353 351 333 292 237 208 197 190 179 170 168 166 167 166 169 168 165 165 165 166 247 326 333 329 327 322 320 318 318 313 312 309 302
337 340 72 2 340 348 349 351 359 7 4 4 1 4 357 313 247 195 183 178 177 177 171 169 177 186 199 221 247 266 279 291 296 301 305 306 308 308 305 301 294 288 289 291
24 36 17 359 359 13 16 20 21 18 15 16 14 12 2 4 341 196 187 195 187 188 188 191 215 246 251 264 273 280 286 287 290 293 295 296 296 295 293 291 291 290 286 278
21 31 32 32 29 32 34 35 34 29 25 14 8 26 3 343 334 248 259 274 257 238 287 267 258 267 273 278 280 283 286 288 290 293 292 290 290 289 288 289 288 288 287 289
39 27 32 40 40 41 39 34 28 26 19 17 19 11 11 2 330 268 261 259 263 263 253 268 270 269 278 281 282 285 285 286 289 290 291 291 289 290 290 289 289 289 289 290
60 56 53 52 51 52 50 46 40 34 32 29 24 14 7 351 324 306 294 288 288 288 297 285 283 288 290 289 290 291 291 291 292 292 292 291 290 289 288 289 289 290 290 288
79 74 69 64 58 53 47 41 34 29 22 15 9 360 349 336 326 315 305 300 298 296 295 293 291 290 291 291 291 291 292 291 291 290 289 287 286 286 287 287 288 288 289 290
77 69 60 51 42 34 29 22 16 9 1 353 344 336 328 320 313 309 306 305 307 304 302 299 296 294 293 292 291 290 290 290 289 287 286 286 286 287 287 286 286 287 289 292
68 51 36 28 24 17 8 1 354 347 343 338 332 326 320 317 311 305 301 298 302 298 295 292 292 292 290 290 289 289 288 286 285 287 288 289 289 289 289 289 289 290 292 293
33 18 15 14 3 353 347 342 338 334 330 325 320 315 311 310 308 305 307 306 306 303 300 300 300 297 297 295 295 294 292 291 291 291 291 291 290 290 290 290 291 292 292 293
2 347 345 344 342 340 338 334 331 327 325 323 320 317 316 318 320 321 322 322 315 310 308 310 307 303 301 298 297 295 293 291 291 290 290 290 290 290 291 291 292 293 293 292
346 338 334 331 331 331 330 330 331 329 325 326 325 324 325 325 329 327 323 324 321 313 308 307 303 300 297 295 295 292 291 290 290 290 290 289 289 290 290 292 293 294 294 295
338 331 327 326 329 330 330 329 329 330 329 333 335 329 329 329 325 326 321 318 315 313 310 309 305 302 298 296 295 295 294 293 293 291 291 291 291 291 291 292 294 297 298 299
334 329 329 330 331 331 330 331 333 338 333 335 344 336 329 322 318 317 319 318 317 315 312 312 310 308 305 302 299 297 295 294 293 291 291 290 291 291 293 295 296 297 297 297
330 329 331 331 331 331 334 334 336 338 338 334 330 333 330 329 328 325 323 323 321 320 319 319 317 314 310 306 303 301 299 296 294 292 290 289 289 290 291 293 293 294 295 297
Wind_Speed_850mb
8 7 5 7 8 12 22 29 13 4 9 8 10 9 8 17 39 44 55 53 51 51 50 50 50 48 46 41 36 31 28 27 27 29 29 29 31 32 33 33 31 31 29 28
6 2 3 6 8 12 13 17 17 25 39 3 7 6 11 25 35 32 45 52 49 45 46 46 43 40 35 30 26 24 24 25 25 25 27 28 29 29 31 34 33 33 32 31
8 6 3 9 8 5 5 9 8 7 6 6 7 8 12 30 42 44 48 51 49 49 47 44 40 32 27 23 21 22 24 26 27 27 26 25 26 27 29 30 33 33 35 36
4 5 3 7 6 6 9 9 17 11 17 16 4 3 6 23 39 43 40 45 49 50 47 41 35 28 23 22 19 19 21 22 24 24 25 26 27 28 29 30 31 31 34 35
3 5 3 5 10 7 9 10 8 13 16 9 19 13 1 4 19 33 37 46 49 45 41 37 30 25 20 20 19 18 17 17 15 15 17 19 22 23 24 26 28 29 31 32
3 3 3 5 11 6 2 4 6 5 12 14 19 3 4 18 2 19 31 40 47 44 38 32 27 21 16 15 15 14 12 11 10 10 11 13 15 16 18 19 22 24 26 27
5 3 5 5 19 13 3 6 12 16 16 15 7 4 16 9 1 17 26 34 35 35 31 26 21 18 18 14 13 10 8 8 9 7 8 10 11 12 14 15 18 20 22 22
6 7 5 26 11 9 6 16 18 23 18 12 6 5 8 3 6 14 26 31 31 31 25 21 18 17 14 13 12 9 8 5 4 5 7 7 8 8 11 11 12 16 18 15
8 6 8 14 16 19 18 19 16 23 18 9 11 8 2 8 11 18 20 25 24 22 22 20 18 15 12 11 8 6 3 1 1 3 5 5 6 6 9 9 9 11 10 10
3 11 8 20 19 37 28 27 24 19 17 12 14 3 2 7 11 14 15 15 16 18 19 18 17 16 14 11 8 6 5 3 1 1 2 3 4 5 7 8 9 9 9 11
6 7 4 14 38 37 35 27 24 18 16 11 9 5 4 7 9 11 13 15 16 18 19 19 17 15 13 11 10 9 9 8 7 7 5 5 4 5 6 8 8 10 10 12
4 5 7 14 34 29 41 38 33 26 21 15 10 7 7 8 10 11 14 15 16 17 16 15 14 14 13 12 10 9 8 7 6 6 6 5 6 10 11 11 13 14 14 14
9 32 33 25 18 28 35 33 29 23 20 17 13 7 5 7 10 11 12 14 15 14 14 13 12 11 9 8 7 6 3 0 2 4 6 9 11 11 11 18 19 19 20 21
17 22 6 25 20 31 26 23 21 21 20 18 16 12 6 4 4 8 10 12 11 10 11 10 9 8 7 6 5 7 8 10 12 14 16 19 22 24 28 28 29 25 26 31
17 19 15 16 20 22 19 19 20 25 25 21 17 15 13 8 2 5 8 8 7 6 6 5 5 9 9 11 13 16 18 19 23 24 27 31 33 35 38 41 43 44 42 36
14 11 17 28 30 29 27 27 28 28 24 23 21 17 13 11 6 2 3 4 3 6 3 12 12 19 21 22 24 26 28 31 34 37 39 42 44 47 49 51 53 54 55 53
21 30 34 40 40 38 36 31 29 28 26 21 17 14 9 5 3 5 8 11 14 15 16 22 24 28 32 32 34 36 38 40 44 49 50 52 55 57 57 59 62 63 63 58
23 24 24 27 30 31 32 32 30 28 27 25 22 20 16 12 11 14 16 20 23 24 27 31 34 36 38 41 45 48 51 53 55 58 58 61 61 62 63 64 67 70 72 71
30 31 31 30 29 28 28 27 28 28 26 24 22 20 21 22 23 24 27 30 32 38 38 39 40 43 45 48 52 54 57 58 59 61 62 64 68 70 72 74 75 74 73 71
26 24 21 19 19 20 23 24 25 26 27 27 28 29 29 31 35 38 41 44 43 46 49 50 51 51 54 57 59 63 65 66 67 68 68 69 69 68 66 64 62 60 57 56
15 15 15 17 20 24 27 30 33 35 39 43 46 48 49 46 45 47 50 54 49 51 50 52 55 56 57 58 59 58 56 55 55 55 54 53 52 52 53 53 53 54 55 55
11 12 13 14 19 23 29 34 40 44 47 50 51 53 57 57 55 54 48 51 48 43 43 44 43 44 45 45 46 45 45 46 48 49 50 51 52 53 54 56 59 60 61 61
12 12 13 18 25 31 37 43 46 53 56 55 56 56 55 52 47 48 44 35 36 37 40 39 40 42 44 46 46 47 49 50 52 54 56 58 60 62 63 64 64 63 62 60
14 15 20 26 34 41 47 52 56 56 59 56 48 44 45 47 39 29 37 40 41 44 46 48 49 50 53 57 57 58 58 59 60 60 60 60 61 62 62 61 60 57 55 52
20 21 25 33 40 47 54 59 60 56 52 43 35 33 35 38 47 49 50 52 51 53 55 53 53 53 56 58 58 59 59 58 56 56 56 55 54 53 52 50 49 47 45 43
24 25 31 39 46 53 57 59 59 49 47 45 34 35 38 42 47 53 55 56 58 58 58 55 51 49 49 49 50 51 52 52 51 51 51 51 50 50 48 45 44 42 40 38
28 31 38 45 50 54 55 52 49 45 41 47 55 53 56 56 57 59 60 59 56 54 53 52 52 52 52 53 54 54 53 53 52 52 51 51 50 48 45 42 39 36 34 31
Wind_Direction_850mb
264 218 160 216 216 225 228 240 250 271 227 274 274 239 217 153 147 153 167 178 186 186 184 186 184 184 180 182 189 198 210 221 231 236 239 239 242 242 241 242 244 247 252 254
274 284 179 284 256 251 253 256 251 251 274 153 323 256 128 163 166 167 177 181 186 191 184 180 182 185 183 185 194 204 217 225 230 237 241 242 244 244 244 244 244 247 251 255
277 317 285 343 312 281 295 18 309 262 311 172 216 218 191 191 194 195 198 185 183 188 184 182 186 187 188 195 210 224 232 235 235 238 243 245 246 246 247 247 249 251 252 253
318 360 1 247 256 226 84 42 15 343 353 339 345 204 296 216 204 203 200 193 188 186 184 185 189 193 202 208 208 221 229 236 235 236 241 247 248 248 248 249 251 251 253 253
247 210 135 357 358 5 21 3 347 320 330 315 336 308 104 176 212 218 204 201 194 187 187 188 194 197 204 212 216 220 220 223 234 239 244 248 252 253 254 255 256 256 256 256
104 123 29 252 298 210 138 12 305 311 319 325 342 355 25 352 347 197 194 195 191 188 188 191 191 201 208 207 208 205 208 215 228 234 242 251 256 261 260 258 256 256 257 258
227 118 21 291 300 299 6 303 329 325 331 347 17 351 315 336 107 157 169 174 178 177 180 182 194 200 198 201 207 212 222 236 245 253 255 255 258 259 260 261 263 263 262 261
349 57 358 349 360 49 286 314 330 350 1 353 20 353 327 18 141 156 159 162 170 173 175 177 182 189 193 196 200 207 219 233 245 252 259 263 261 268 267 265 266 263 260 247
29 53 51 36 52 16 355 326 340 346 357 2 352 353 62 104 134 151 160 163 170 175 175 176 181 183 190 188 184 193 200 203 230 241 241 245 259 274 280 283 273 268 267 261
143 16 54 55 27 23 21 5 357 351 351 353 342 333 59 159 167 167 162 165 164 167 170 171 171 172 173 164 162 150 119 96 100 276 326 324 325 318 305 312 313 310 297 279
75 22 304 44 12 1 0 1 11 3 354 5 329 290 266 217 197 184 177 174 172 170 171 168 164 159 153 143 133 119 106 105 99 86 68 44 22 0 336 331 328 308 303 299
305 56 309 293 337 342 352 353 359 2 3 360 329 305 271 243 224 204 188 180 175 169 165 161 159 154 150 143 134 125 123 113 96 75 61 39 19 352 351 341 335 330 322 316
298 307 304 306 303 330 342 348 356 1 358 353 351 333 292 237 208 197 190 179 170 168 166 167 166 169 168 165 165 165 166 247 326 333 329 327 322 320 318 318 313 312 309 302
337 340 72 2 340 348 349 351 359 7 4 4 1 4 357 313 247 195 183 178 177 177 171 169 177 186 199 221 247 266 279 291 296 301 305 306 308 308 305 301 294 288 289 291
24 36 17 359 359 13 16 20 21 18 15 16 14 12 2 4 341 196 187 195 187 188 188 191 215 246 251 264 273 280 286 287 290 293 295 296 296 295 293 291 291 290 286 278
21 31 32 32 29 32 34 35 34 29 25 14 8 26 3 343 334 248 259 274 257 238 287 267 258 267 273 278 280 283 286 288 290 293 292 290 290 289 288 289 288 288 287 289
39 27 32 40 40 41 39 34 28 26 19 17 19 11 11 2 330 268 261 259 263 263 253 268 270 269 278 281 282 285 285 286 289 290 291 291 289 290 290 289 289 289 289 290
60 56 53 52 51 52 50 46 40 34 32 29 24 14 7 351 324 306 294 288 288 288 297 285 283 288 290 289 290 291 291 291 292 292 292 291 290 289 288 289 289 290 290 288
79 74 69 64 58 53 47 41 34 29 22 15 9 360 349 336 326 315 305 300 298 296 295 293 291 290 291 291 291 291 292 291 291 290 289 287 286 286 287 287 288 288 289 290
77 69 60 51 42 34 29 22 16 9 1 353 344 336 328 320 313 309 306 305 307 304 302 299 296 294 293 292 291 290 290 290 289 287 286 286 286 287 287 286 286 287 289 292
68 51 36 28 24 17 8 1 354 347 343 338 332 326 320 317 311 305 301 298 302 298 295 292 292 292 290 290 289 289 288 286 285 287 288 289 289 289 289 289 289 290 292 293
33 18 15 14 3 353 347 342 338 334 330 325 320 315 311 310 308 305 307 306 306 303 300 300 300 297 297 295 295 294 292 291 291 291 291 291 290 290 290 290 291 292 292 293
2 347 345 344 342 340 338 334 331 327 325 323 320 317 316 318 320 321 322 322 315 310 308 310 307 303 301 298 297 295 293 291 291 290 290 290 290 290 291 291 292 293 293 292
346 338 334 331 331 331 330 330 331 329 325 326 325 324 325 325 329 327 323 324 321 313 308 307 303 300 297 295 295 292 291 290 290 290 290 289 289 290 290 292 293 294 294 295
338 331 327 326 329 330 330 329 329 330 329 333 335 329 329 329 325 326 321 318 315 313 310 309 305 302 298 296 295 295 294 293 293 291 291 291 291 291 291 292 294 297 298 299
334 329 329 330 331 331 330 331 333 338 333 335 344 336 329 322 318 317 319 318 317 315 312 312 310 308 305 302 299 297 295 294 293 291 291 290 291 291 293 295 296 297 297 297
330 329 331 331 331 331 334 334 336 338 338 334 330 333 330 329 328 325 323 323 321 320 319 319 317 314 310 306 303 301 299 296 294 292 290 289 289 290 291 293 293 294 295 297